Corpus Christi, TX

10:16 AM CST on February 25, 2017 (GMT -0600)
Corpus Christi International

Weather History for KCRP - December, 2011

Change the Weather History Date:

Tuesday, December 20, 2011

  Actual Average Record
Temperature  
Mean Temperature 61 °F 58 °F  
Max Temperature 69 °F 68 °F 89 °F (1978)
Min Temperature 53 °F 48 °F 23 °F (1924)
Degree Days  
Heating Degree Days 4 9  
Month to date heating degree days 116 150  
Since 1 July heating degree days 210 251  
Cooling Degree Days 0 1  
Month to date cooling degree days 49 38  
Year to date cooling degree days 4126 3513  
Growing Degree Days 12 (Base 50)    
Moisture  
Dew Point 55 °F    
Average Humidity 65    
Maximum Humidity 93    
Minimum Humidity 37    
Precipitation  
Precipitation 0.01 in 0.06 in 2.63 in (1958)
Month to date precipitation 1.06 1.12  
Year to date precipitation 11.94 31.05  
Snow  
Snow 0.00 in - - ()
Month to date snowfall 0.0  
Since 1 July snowfall 0.0  
Snow Depth 0.00 in    
Sea Level Pressure  
Sea Level Pressure 29.91 in    
Wind  
Wind Speed 9 mph (North)    
Max Wind Speed 23 mph    
Max Gust Speed 28 mph    
Visibility 10 miles    
Events Rain    
T = Trace of Precipitation, MM = Missing Value Source: NWS Daily Summary

Daily Weather History Graph

Daily Weather History Graph

Search for Another Location

Airport or City:

Trip Planner

Search our weather history database for the weather conditions in past years. The results will help you decide how hot, cold, wet, or windy it might be!

Date:

Astronomy

Dec. 20, 2011 Rise Set
Actual Time 7:16 AM CST 5:39 PM CST
Civil Twilight 6:50 AM CST 6:04 PM CST
Nautical Twilight 6:21 AM CST 6:34 PM CST
Astronomical Twilight 5:52 AM CST 7:02 PM CST
Moon 2:50 AM CST (12/20) 2:06 PM CST (12/20)
Length of Visible Light 11h 14m
Length of Day
10h 23m
Waning Crescent, 21% of the Moon is Illuminated
Dec 20
Waning Crescent
Dec 24
New
Jan 1
First Quarter
Jan 9
Full
Jan 16
Last Quarter

Hourly Weather History & Observations

Time (CST) Temp. Dew Point Humidity Pressure Visibility Wind Dir Wind Speed Gust Speed Precip Events Conditions
12:51 AM 66.9 °F 64.0 °F 90% 29.88 in 10.0 mi SE 4.6 mph - N/A   Overcast
1:51 AM 66.9 °F 64.9 °F 93% 29.87 in 10.0 mi Calm Calm - 0.00 in   Overcast
2:01 AM 66.2 °F 64.4 °F 94% 29.87 in 10.0 mi SE 3.5 mph - N/A   Overcast
2:22 AM 66.2 °F 64.4 °F 94% 29.86 in 10.0 mi SSE 3.5 mph - 0.00 in Rain Light Rain
2:51 AM 66.9 °F 64.9 °F 93% 29.85 in 10.0 mi Calm Calm - 0.00 in   Overcast
3:11 AM 66.2 °F 64.4 °F 94% 29.85 in 10.0 mi Calm Calm - 0.00 in   Overcast
3:51 AM 68.0 °F 64.9 °F 90% 29.85 in 10.0 mi Calm Calm - 0.01 in Rain Light Rain
4:08 AM 68.0 °F 64.4 °F 88% 29.84 in 10.0 mi Calm Calm - 0.00 in Rain Light Rain
4:51 AM 66.9 °F 64.9 °F 93% 29.83 in 10.0 mi SE 4.6 mph - 0.00 in   Mostly Cloudy
5:16 AM 66.2 °F 64.4 °F 94% 29.84 in 10.0 mi Calm Calm - N/A   Overcast
5:48 AM 66.2 °F 64.4 °F 94% 29.84 in 10.0 mi Calm Calm - N/A   Mostly Cloudy
5:51 AM 66.9 °F 64.9 °F 93% 29.84 in 10.0 mi Calm Calm - N/A   Scattered Clouds
6:40 AM 66.2 °F 64.4 °F 94% 29.87 in 10.0 mi Calm Calm - N/A   Overcast
6:51 AM 66.9 °F 64.9 °F 93% 29.86 in 10.0 mi Calm Calm - N/A   Overcast
7:01 AM 66.2 °F 64.4 °F 94% 29.87 in 10.0 mi WNW 4.6 mph - N/A   Overcast
7:22 AM 66.2 °F 64.4 °F 94% 29.88 in 10.0 mi WNW 4.6 mph - N/A   Overcast
7:41 AM 68.0 °F 64.4 °F 88% 29.89 in 10.0 mi Calm Calm - 0.00 in Rain Light Rain
7:51 AM 68.0 °F 66.0 °F 93% 29.89 in 7.0 mi NW 3.5 mph - 0.00 in Rain Light Rain
8:43 AM 69.8 °F 66.2 °F 88% 29.91 in 10.0 mi NNW 3.5 mph - 0.00 in   Overcast
8:51 AM 68.0 °F 64.9 °F 90% 29.92 in 10.0 mi NNW 24.2 mph 27.6 mph 0.00 in   Overcast
9:23 AM 64.4 °F 55.4 °F 73% 29.94 in 10.0 mi North 17.3 mph 26.5 mph 0.00 in   Overcast
9:51 AM 63.0 °F 54.0 °F 72% 29.95 in 10.0 mi North 19.6 mph 25.3 mph 0.00 in   Overcast
10:34 AM 62.6 °F 46.4 °F 55% 29.96 in 10.0 mi North 16.1 mph 21.9 mph N/A   Overcast
10:51 AM 63.0 °F 45.0 °F 52% 29.96 in 10.0 mi North 21.9 mph 25.3 mph N/A   Overcast
11:51 AM 63.0 °F 45.0 °F 52% 29.96 in 10.0 mi North 18.4 mph - N/A   Overcast
12:51 PM 64.0 °F 43.0 °F 46% 29.94 in 10.0 mi North 16.1 mph - N/A   Overcast
1:51 PM 64.0 °F 41.0 °F 43% 29.93 in 10.0 mi North 12.7 mph - N/A   Overcast
2:51 PM 64.9 °F 39.0 °F 39% 29.93 in 10.0 mi NNW 16.1 mph - N/A   Overcast
3:51 PM 66.0 °F 39.9 °F 38% 29.93 in 10.0 mi NNE 11.5 mph - N/A   Mostly Cloudy
4:51 PM 64.9 °F 39.9 °F 40% 29.94 in 10.0 mi NNE 11.5 mph - N/A   Mostly Cloudy
5:51 PM 61.0 °F 39.9 °F 46% 29.95 in 10.0 mi NNE 11.5 mph - N/A   Scattered Clouds
6:51 PM 57.9 °F 41.0 °F 53% 29.97 in 10.0 mi NE 8.1 mph - N/A   Partly Cloudy
7:51 PM 57.9 °F 39.9 °F 51% 30.00 in 10.0 mi NE 5.8 mph - N/A   Mostly Cloudy
8:51 PM 55.0 °F 39.9 °F 57% 30.01 in 10.0 mi Calm Calm - N/A   Mostly Cloudy
9:51 PM 59.0 °F 43.0 °F 55% 30.02 in 10.0 mi NNE 5.8 mph - N/A   Mostly Cloudy
10:51 PM 55.9 °F 39.0 °F 53% 30.03 in 10.0 mi North 8.1 mph - N/A   Partly Cloudy
11:51 PM 53.1 °F 37.9 °F 57% 30.03 in 10.0 mi NNE 6.9 mph - N/A   Scattered Clouds